DW1417 Weather Reports


time (UTC)temp
C
wind
direction
speed
KPH
gust
KPH
rain 1hr
cm
rain 24hr
cm
rain mn
cm
humidity
%
barometer
mb
20190424034530 26 190 1.6 0.0 0.00 0.00 0.00 40 1019.2
20190424033022 26 191 1.6 0.0 0.00 0.00 0.00 41 1019.4
20190424031523 26 192 1.6 0.0 0.00 0.00 0.00 41 1019.4
20190424030007 26 192 3.2 0.0 0.00 0.00 0.00 43 1019.6
20190424024504 26 191 3.2 0.0 0.00 0.00 0.00 43 1019.7
20190424023145 25 203 1.6 0.0 0.00 0.00 0.00 44 1020.2
20190424021857 25 203 3.2 0.0 0.00 0.00 0.00 45 1020.4
20190424020149 25 183 1.6 0.0 0.00 0.00 0.00 46 1020.8
20190424014637 24 178 3.2 0.0 0.00 0.00 0.00 48 1020.9
20190424013143 24 178 3.2 0.0 0.00 0.00 0.00 47 1021.2
20190424011606 24 183 3.2 0.0 0.00 0.00 0.00 48 1021.2
20190424010106 23 175 3.2 0.0 0.00 0.00 0.00 48 1021.4
20190424004633 23 84 0.0 0.0 0.00 0.00 0.00 48 1021.4
20190424003052 22 83 3.2 0.0 0.00 0.00 0.00 51 1022.0
20190424001621 22 76 1.6 0.0 0.00 0.00 0.00 52 1022.2
20190424000109 21 334 1.6 0.0 0.00 0.00 0.00 54 1022.4
20190423234606 21 74 0.0 0.0 0.00 0.00 0.00 56 1022.6
20190423233026 21 74 1.6 0.0 0.00 0.00 0.00 58 1022.7
20190423231526 20 76 3.2 0.0 0.00 0.00 0.00 58 1022.9
20190423230019 20 87 1.6 0.0 0.00 0.00 0.00 62 1022.9
20190423224519 18 156 1.6 0.0 0.00 0.00 0.00 66 1023.0
20190423223017 -17 0.0 0.0 0.00 0.00 0.00 1023.1
20190423221507 -17 0.0 0.0 0.00 0.00 0.00 1023.4
20190423220247 -17 0.0 0.0 0.00 0.00 0.00 1022.9
20190423214804 -17 0.0 0.0 0.00 0.00 0.00 1022.9
20190423213208 -17 0.0 0.0 0.00 0.00 0.00 1023.0
20190423211641 -17 0.0 0.0 0.00 0.00 0.00 1022.9
20190423210113 -17 0.0 0.0 0.00 0.00 0.00 1022.8
20190423204607 -17 0.0 0.0 0.00 0.00 0.00 1022.4
20190423203102 -17 0.0 0.0 0.00 0.00 0.00 1022.5
20190423201617 -17 0.0 0.0 0.00 0.00 0.00 1022.4
20190423200101 -17 0.0 0.0 0.00 0.00 0.00 1022.2
20190423194605 -17 0.0 0.0 0.00 0.00 0.00 1022.1
20190423193105 -17 0.0 0.0 0.00 0.00 0.00 1021.9
20190423191525 -17 0.0 0.0 0.00 0.00 0.00 1021.9
20190423190012 -17 0.0 0.0 0.00 0.00 0.00 1021.7
20190423184502 -17 0.0 0.0 0.00 0.00 0.00 1021.8
20190423183212 -17 0.0 0.0 0.00 0.00 0.00 1021.7
20190423181734 -17 0.0 0.0 0.00 0.00 0.00 1021.6
20190423180136 -17 0.0 0.0 0.00 0.00 0.00 1021.6
20190423174650 -17 0.0 0.0 0.00 0.00 0.00 1021.5
20190423173104 -17 0.0 0.0 0.00 0.00 0.00 1021.6
20190423171611 -17 0.0 0.0 0.00 0.00 0.00 1021.6
20190423170041 -17 0.0 0.0 0.00 0.00 0.00 1021.7
20190423164544 -17 0.0 0.0 0.00 0.00 0.00 1021.7
20190423163050 -17 0.0 0.0 0.00 0.00 0.00 1021.8
20190423161536 -17 0.0 0.0 0.00 0.00 0.00 1021.5
20190423160042 -17 0.0 0.0 0.00 0.00 0.00 1021.6
20190423154524 -17 0.0 0.0 0.00 0.00 0.00 1021.7
20190423153007 -17 0.0 0.0 0.00 0.00 0.00 1021.7
20190423151746 -17 0.0 0.0 0.00 0.00 0.00 1021.8
20190423150206 18 182 0.0 0.0 0.00 0.00 0.00 67 1021.7
20190423144635 18 153 1.6 0.0 0.00 0.00 0.00 66 1021.6
20190423143137 18 140 6.4 0.0 0.00 0.00 0.00 65 1021.4
20190423141653 18 69 8.0 0.0 0.00 0.00 0.00 66 1021.3
20190423140221 18 44 4.8 0.0 0.00 0.00 0.00 67 1021.2
20190423134657 18 51 8.0 0.0 0.00 0.00 0.00 67 1021.5
20190423133156 18 67 4.8 0.0 0.00 0.00 0.00 66 1021.7
20190423131632 18 77 11.3 0.0 0.00 0.00 0.00 66 1021.7
20190423130124 18 84 9.7 0.0 0.00 0.00 0.00 65 1021.7
20190423124626 19 71 11.3 0.0 0.00 0.00 0.00 64 1021.7
20190423123054 19 44 14.5 0.0 0.00 0.00 0.00 64 1021.9
20190423121541 19 38 16.1 0.0 0.00 0.00 0.00 63 1022.1
20190423120053 19 51 14.5 0.0 0.00 0.00 0.00 62 1022.1
20190423114633 20 77 16.1 0.0 0.00 0.00 0.00 62 1022.2
20190423113049 20 35 17.7 0.0 0.00 0.00 0.00 63 1022.2
20190423110057 20 76 19.3 0.0 0.00 0.00 0.00 61 1022.1
20190423104632 20 34 17.7 0.0 0.00 0.00 0.00 60 1022.2
20190423103136 21 46 19.3 0.0 0.00 0.00 0.00 60 1022.1
20190423101545 21 49 17.7 0.0 0.00 0.00 0.00 59 1022.1
20190423100051 21 79 17.7 0.0 0.00 0.00 0.00 57 1022.0
20190423094557 21 95 17.7 0.0 0.00 0.00 0.00 56 1021.9
20190423093044 21 42 16.1 0.0 0.00 0.00 0.00 55 1021.9
20190423091544 21 74 16.1 0.0 0.00 0.00 0.00 54 1021.8
20190423090046 21 59 16.1 0.0 0.00 0.00 0.00 53 1021.7
20190423084606 21 47 14.5 0.0 0.00 0.00 0.00 53 1021.5
20190423083103 21 43 16.1 0.0 0.00 0.00 0.00 53 1021.4
20190423081547 21 58 16.1 0.0 0.00 0.00 0.00 54 1021.4
20190423080032 21 57 16.1 0.0 0.00 0.00 0.00 55 1021.2
20190423074615 22 40 17.7 0.0 0.00 0.00 0.00 56 1021.2
20190423073050 22 74 19.3 0.0 0.00 0.00 0.00 56 1020.8
20190423071600 23 126 17.7 0.0 0.00 0.00 0.00 55 1020.5
20190423070058 23 63 14.5 0.0 0.00 0.00 0.00 54 1020.5
20190423064641 23 82 11.3 0.0 0.00 0.00 0.00 53 1020.5
20190423063058 23 76 11.3 0.0 0.00 0.00 0.00 52 1020.3
20190423061527 25 76 11.3 0.0 0.00 0.00 0.00 50 1020.1
20190423060039 25 17 8.0 0.0 0.00 0.00 0.00 45 1020.0
20190423054542 25 69 8.0 0.0 0.00 0.00 0.00 45 1020.1
20190423053051 26 55 8.0 0.0 0.00 0.00 0.00 44 1020.2
20190423051633 25 103 8.0 0.0 0.00 0.00 0.00 45 1020.0
20190423050047 25 55 8.0 0.0 0.00 0.00 0.00 46 1020.1
20190423044539 25 79 4.8 0.0 0.00 0.00 0.00 46 1019.8
20190423043041 25 72 8.0 0.0 0.00 0.00 0.00 44 1020.0
20190423041522 25 71 9.7 0.0 0.00 0.00 0.00 45 1020.3
20190423040021 25 71 8.0 0.0 0.00 0.00 0.00 44 1020.3